TimeCST,TemperatureF,Dew PointF,Humidity,Sea Level PressureIn,VisibilityMPH,Wind Direction,Wind SpeedMPH,Gust SpeedMPH,PrecipitationIn,Events,Conditions,WindDirDegrees,DateUTC
12:15 AM,15.8,12.2,86,30.12,3.0,NNE,15.0,23.0,N/A,Snow,Light Snow,30,2012-12-09 06:15:00
12:34 AM,15.8,12.2,86,30.13,2.5,NNE,12.7,20.7,N/A,Snow,Light Snow,20,2012-12-09 06:34:00
12:55 AM,15.8,12.2,86,30.13,3.0,NNE,16.1,25.3,N/A,Snow,Light Snow,20,2012-12-09 06:55:00
1:14 AM,15.8,10.4,79,30.14,3.0,NNE,15.0,21.9,N/A,Snow,Light Snow,20,2012-12-09 07:14:00
1:34 AM,15.8,10.4,79,30.14,3.0,NNE,16.1,20.7,N/A,Snow,Light Snow,30,2012-12-09 07:34:00
1:55 AM,14.0,10.4,86,30.14,2.5,NNE,16.1,21.9,N/A,Snow,Light Snow,20,2012-12-09 07:55:00
2:14 AM,14.0,10.4,86,30.15,3.0,NNE,15.0,20.7,N/A,Snow,Light Snow,20,2012-12-09 08:14:00
2:34 AM,12.2,10.4,92,30.16,4.0,NNE,17.3,21.9,N/A,Snow,Light Snow,20,2012-12-09 08:34:00
2:55 AM,12.2,10.4,92,30.16,4.0,NNE,16.1,23.0,N/A,Snow,Light Snow,20,2012-12-09 08:55:00
3:14 AM,12.2,8.6,85,30.17,5.0,NNE,16.1,21.9,N/A,Snow,Light Snow,20,2012-12-09 09:14:00
3:35 AM,12.2,8.6,85,30.17,7.0,NNE,16.1,24.2,N/A,,Mostly Cloudy,20,2012-12-09 09:35:00
3:55 AM,10.4,8.6,92,30.17,10.0,North,16.1,21.9,N/A,,Scattered Clouds,10,2012-12-09 09:55:00
4:14 AM,10.4,6.8,85,30.18,10.0,North,18.4,21.9,N/A,,Mostly Cloudy,10,2012-12-09 10:14:00
4:34 AM,10.4,6.8,85,30.18,10.0,NNE,19.6,25.3,N/A,,Scattered Clouds,20,2012-12-09 10:34:00
4:55 AM,8.6,3.2,79,30.20,10.0,NNE,16.1,24.2,N/A,,Scattered Clouds,20,2012-12-09 10:55:00
5:14 AM,6.8,3.2,85,30.21,10.0,North,18.4,23.0,N/A,,Clear,10,2012-12-09 11:14:00
5:35 AM,6.8,1.4,79,30.22,10.0,North,16.1,25.3,N/A,,Clear,10,2012-12-09 11:35:00
6:14 AM,6.8,1.4,79,30.24,10.0,North,18.4,24.2,N/A,,Clear,10,2012-12-09 12:14:00
6:35 AM,5.0,-0.4,78,30.25,10.0,North,19.6,23.0,N/A,,Clear,10,2012-12-09 12:35:00
6:55 AM,3.2,-0.4,85,30.26,10.0,North,19.6,25.3,N/A,,Clear,10,2012-12-09 12:55:00
7:14 AM,3.2,-2.2,78,30.27,10.0,North,17.3,23.0,N/A,,Clear,10,2012-12-09 13:14:00
7:35 AM,1.4,-5.8,72,30.28,10.0,North,17.3,-,N/A,,Clear,360,2012-12-09 13:35:00
7:54 AM,-0.4,-5.8,78,30.28,10.0,North,17.3,-,N/A,,Clear,360,2012-12-09 13:54:00
8:14 AM,-0.4,-5.8,78,30.29,10.0,North,19.6,-,N/A,,Clear,10,2012-12-09 14:14:00
8:35 AM,-0.4,-7.6,72,30.30,10.0,North,19.6,-,N/A,,Clear,360,2012-12-09 14:35:00
8:54 AM,-2.2,-9.4,71,30.30,10.0,North,20.7,-,N/A,,Clear,360,2012-12-09 14:54:00
9:14 AM,-2.2,-9.4,71,30.30,10.0,North,19.6,-,N/A,,Clear,360,2012-12-09 15:14:00
9:35 AM,-2.2,-9.4,71,30.31,10.0,North,20.7,-,N/A,,Clear,360,2012-12-09 15:35:00
9:54 AM,-2.2,-9.4,71,30.32,10.0,North,19.6,-,N/A,,Clear,360,2012-12-09 15:54:00
10:14 AM,-2.2,-7.6,78,30.33,10.0,North,20.7,-,N/A,,Clear,360,2012-12-09 16:14:00
10:35 AM,-0.4,-5.8,78,30.33,10.0,North,19.6,-,N/A,,Clear,360,2012-12-09 16:35:00
10:54 AM,-0.4,-5.8,78,30.33,10.0,North,20.7,-,N/A,,Clear,360,2012-12-09 16:54:00
11:14 AM,1.4,-4.0,78,30.33,10.0,North,20.7,-,N/A,,Clear,10,2012-12-09 17:14:00
11:35 AM,1.4,-4.0,78,30.32,10.0,North,23.0,-,N/A,,Clear,10,2012-12-09 17:35:00
11:54 AM,1.4,-4.0,78,30.31,10.0,North,23.0,27.6,N/A,,Scattered Clouds,360,2012-12-09 17:54:00
12:14 PM,1.4,-2.2,85,30.30,4.0,North,24.2,-,N/A,,Haze,360,2012-12-09 18:14:00
12:35 PM,1.4,-2.2,85,30.29,3.0,North,24.2,-,N/A,,Overcast,360,2012-12-09 18:35:00
12:54 PM,1.4,-2.2,85,30.30,2.5,North,26.5,-,N/A,,Overcast,360,2012-12-09 18:54:00
1:15 PM,1.4,-2.2,85,30.29,2.0,North,23.0,-,N/A,,Haze,350,2012-12-09 19:15:00
1:35 PM,1.4,-2.2,85,30.29,2.5,North,20.7,25.3,N/A,,Overcast,360,2012-12-09 19:35:00
1:54 PM,1.4,-4.0,78,30.28,2.0,North,19.6,-,N/A,,Haze,350,2012-12-09 19:54:00
2:15 PM,1.4,-4.0,78,30.28,2.0,North,17.3,-,N/A,,Haze,360,2012-12-09 20:15:00
2:35 PM,-0.4,-4.0,85,30.28,1.8,North,20.7,-,N/A,,Overcast,350,2012-12-09 20:35:00
2:54 PM,-0.4,-5.8,78,30.28,2.0,North,17.3,-,N/A,,Haze,350,2012-12-09 20:54:00
3:15 PM,-0.4,-5.8,78,30.29,2.0,North,17.3,-,N/A,,Overcast,350,2012-12-09 21:15:00
3:35 PM,-2.2,-5.8,85,30.29,3.0,North,19.6,-,N/A,,Overcast,350,2012-12-09 21:35:00
3:54 PM,-2.2,-7.6,78,30.29,4.0,North,18.4,-,N/A,,Haze,350,2012-12-09 21:54:00
4:15 PM,-2.2,-7.6,78,30.29,4.0,North,18.4,-,N/A,,Haze,350,2012-12-09 22:15:00
4:35 PM,-4.0,-7.6,85,30.29,4.0,North,18.4,-,N/A,,Overcast,350,2012-12-09 22:35:00
4:54 PM,-4.0,-7.6,85,30.29,3.0,North,15.0,20.7,N/A,,Overcast,350,2012-12-09 22:54:00
5:15 PM,-4.0,-9.4,78,30.29,5.0,North,18.4,-,N/A,,Haze,350,2012-12-09 23:15:00
5:35 PM,-5.8,-9.4,84,30.29,10.0,North,17.3,-,N/A,,Overcast,350,2012-12-09 23:35:00
5:54 PM,-5.8,-9.4,84,30.29,4.0,North,16.1,-,N/A,,Overcast,350,2012-12-09 23:54:00
6:15 PM,-5.8,-9.4,84,30.29,4.0,North,11.5,-,N/A,,Haze,360,2012-12-10 00:15:00
6:34 PM,-5.8,-11.2,77,30.29,10.0,North,13.8,-,N/A,,Mostly Cloudy,350,2012-12-10 00:34:00
6:54 PM,-5.8,-11.2,77,30.29,10.0,North,15.0,-,N/A,,Clear,350,2012-12-10 00:54:00
7:15 PM,-7.6,-11.2,84,30.29,10.0,North,13.8,-,N/A,,Clear,350,2012-12-10 01:15:00
7:34 PM,-7.6,-11.2,84,30.28,10.0,North,15.0,-,N/A,,Clear,350,2012-12-10 01:34:00
7:54 PM,-7.6,-13.0,77,30.28,10.0,North,13.8,-,N/A,,Clear,350,2012-12-10 01:54:00
8:15 PM,-7.6,-13.0,77,30.27,10.0,North,12.7,-,N/A,,Clear,360,2012-12-10 02:15:00
8:34 PM,-7.6,-14.8,71,30.25,10.0,North,10.4,-,N/A,,Clear,360,2012-12-10 02:34:00
8:55 PM,-9.4,-14.8,77,30.25,10.0,North,8.1,-,N/A,,Clear,360,2012-12-10 02:55:00
9:15 PM,-9.4,-14.8,77,30.23,10.0,NNE,4.6,-,N/A,,Clear,30,2012-12-10 03:15:00
9:34 PM,-9.4,-14.8,77,30.23,10.0,North,3.5,-,N/A,,Clear,10,2012-12-10 03:34:00
9:55 PM,-9.4,-14.8,77,30.22,10.0,NNW,5.8,-,N/A,,Clear,340,2012-12-10 03:55:00
10:15 PM,-9.4,-14.8,77,30.22,10.0,NNW,5.8,-,N/A,,Clear,340,2012-12-10 04:15:00
10:55 PM,-9.4,-14.8,77,30.21,10.0,NNW,5.8,-,N/A,,Clear,330,2012-12-10 04:55:00
11:14 PM,-9.4,-14.8,77,30.20,10.0,NNW,3.5,-,N/A,,Clear,340,2012-12-10 05:14:00
11:34 PM,-9.4,-14.8,77,30.18,10.0,Calm,Calm,-,N/A,,Clear,0,2012-12-10 05:34:00
11:55 PM,-9.4,-14.8,77,30.17,10.0,Calm,Calm,-,N/A,,Clear,0,2012-12-10 05:55:00